Location: Unspecified
(38.0989°N, 0.6729°W)
Time: 07:03:46
(UTC+01:00)

BlueWalker 3 - Visible Passes

Search period start: 02 December 2022 00:00
Search period end: 12 December 2022 00:00
Orbit: 500 x 519 km, 53.2° (Epoch: 01 December)

Date Brightness Start Highest point End Pass type
(mag) Time Alt. Az. Time Alt. Az. Time Alt. Az.
04 Dec 4.6 19:41:33 10° NNW 19:41:33 10° NNW 19:41:33 10° NNW visible
05 Dec 4.3 19:23:05 10° NNW 19:24:00 12° N 19:24:00 12° N visible
06 Dec 4.0 19:04:37 10° NNW 19:06:30 14° NNE 19:06:30 14° NNE visible
07 Dec 3.8 18:46:09 10° NNW 18:48:27 15° NNE 18:49:06 14° NNE visible
07 Dec 5.0 20:23:52 10° NW 20:23:57 10° NW 20:23:57 10° NW visible
08 Dec 3.8 18:27:41 10° NNW 18:30:04 15° NNE 18:31:50 12° NE visible
08 Dec 4.2 20:05:27 10° NW 20:06:41 19° NW 20:06:41 19° NW visible
09 Dec 3.8 18:09:13 10° NNW 18:11:42 16° NNE 18:14:09 10° ENE visible
09 Dec 2.9 19:47:01 10° NW 19:49:36 39° NW 19:49:36 39° NW visible
10 Dec 1.7 19:28:35 10° NW 19:32:29 82° NE 19:32:46 75° E visible
11 Dec 1.8 19:10:09 10° NW 19:14:04 88° NE 19:16:17 24° SE visible
